Location: Observatoire
(46.1952°N, 5.3391°E)
Time: 08:22:22
(UTC+01:00)

Explorer 7 - Pass Details

Date: 20 February 2026
Orbit: 430 x 541 km, 50.2° (Epoch: 9 March)

Event Time Altitude Azimuth Distance (km) Brightness Sun altitude
Rises 21:32:32 0° 283° (WNW) 2,560 11.2 -34.9°
Enters shadow 21:34:58 - 265° (W) 1,814 10.1 -35.2°
Reaches altitude 10° 21:35:26 10° 259° (W) 1,701 - -35.3°
Maximum altitude 21:37:38 15° 225° (SW) 1,446 - -35.7°
Drops below altitude 10° 21:39:51 10° 190° (S) 1,733 - -36.0°
Sets 21:42:52 0° 166° (SSE) 2,639 - -36.5°
